Weather History for Hugo, OK

Change the Weather History Date:

Tuesday, December 4, 2012

  Actual Average Record
Temperature  
Mean Temperature 59 °F -  
Max Temperature 70 °F 59 °F 74 °F (2013)
Min Temperature 48 °F 36 °F 47 °F (2013)
Degree Days  
Heating Degree Days 6    
Growing Degree Days 9 (Base 50)    
Moisture  
Dew Point 45 °F    
Average Humidity 57    
Maximum Humidity 92    
Minimum Humidity 27    
Precipitation  
Precipitation 0.00 in - - ()
Sea Level Pressure  
Sea Level Pressure 30.12 in    
Wind  
Wind Speed 8 mph ()    
Max Wind Speed 18 mph    
Max Gust Speed 24 mph    
Visibility 10.0 miles    
Events Thunderstorm    
Averages and records for this station are not official NWS values.
T = Trace of Precipitation, MM = Missing Value Source: Averaged Metar Reports

Daily Weather History Graph

Daily Weather History Graph

Search for Another Location

Airport:

Trip Planner

Search our weather history database for the weather conditions in past years. The results will help you decide how hot, cold, wet, or windy it might be!

Date:

Astronomy

Dec. 04, 2012 Rise Set
Actual Time 7:12 AM CST 5:12 PM CST
Civil Twilight 6:44 AM CST 5:40 PM CST
Nautical Twilight 6:13 AM CST 6:11 PM CST
Astronomical Twilight 5:43 AM CST 6:41 PM CST
Moon 10:50 PM CST (12/4) 11:16 AM CST (12/4)
Length of Visible Light 10h 55m
Length of Day
10h 00m
Waning Gibbous, 69% of the Moon is Illuminated
Dec 4
Waning Gibbous
Dec 6
Last Quarter
Dec 13
New
Dec 19
First Quarter
Dec 28
Full

Hourly Weather History & Observations

Time (CST) Temp. Dew Point Humidity Pressure Visibility Wind Dir Wind Speed Gust Speed Precip Events Conditions
12:15 AM 63.7 °F 60.3 °F 89% 29.99 in 10.0 mi SSE 6.9 mph - N/A   Clear
12:35 AM 63.5 °F 60.4 °F 90% 29.99 in 10.0 mi SSE 5.8 mph - N/A   Scattered Clouds
12:55 AM 63.7 °F 60.8 °F 90% 29.99 in 10.0 mi SSE 5.8 mph - N/A   Scattered Clouds
1:15 AM 63.5 °F 60.8 °F 91% 29.99 in 10.0 mi SSE 4.6 mph - N/A   Scattered Clouds
1:35 AM 63.5 °F 61.0 °F 91% 29.99 in 10.0 mi SSE 6.9 mph - N/A   Scattered Clouds
1:55 AM 63.5 °F 61.2 °F 92% 29.98 in 10.0 mi South 8.1 mph - N/A   Scattered Clouds
2:15 AM 63.5 °F 61.2 °F 92% 29.98 in 10.0 mi South 6.9 mph - N/A   Clear
2:55 AM 64.0 °F 60.8 °F 89% 29.98 in 10.0 mi South 6.9 mph - N/A   Clear
3:15 AM 65.3 °F 60.3 °F 84% 29.98 in 10.0 mi South 10.4 mph - N/A   Clear
3:35 AM 65.5 °F 60.3 °F 83% 29.98 in 10.0 mi South 10.4 mph - N/A   Scattered Clouds
4:15 AM 64.9 °F 60.3 °F 85% 29.99 in 10.0 mi SSW 5.8 mph - N/A   Mostly Cloudy
4:35 AM 65.3 °F 60.3 °F 84% 29.99 in 10.0 mi North - - N/A   Overcast
4:55 AM 64.9 °F 60.1 °F 84% 29.99 in 10.0 mi SSW 6.9 mph - N/A   Overcast
5:15 AM 64.9 °F 60.1 °F 84% 30.00 in 10.0 mi SSW 6.9 mph - N/A   Overcast
5:35 AM 64.9 °F 60.1 °F 84% 30.01 in 10.0 mi SSW 8.1 mph - N/A   Overcast
5:55 AM 64.6 °F 59.9 °F 85% 30.02 in 10.0 mi SW 6.9 mph - N/A   Overcast
6:15 AM 64.6 °F 59.5 °F 84% 30.03 in 10.0 mi SSW 6.9 mph - N/A   Overcast
6:35 AM 64.6 °F 59.5 °F 84% 30.03 in 10.0 mi SSW 8.1 mph - N/A   Overcast
6:55 AM 64.4 °F 59.4 °F 84% 30.04 in 10.0 mi SSW 8.1 mph - N/A   Overcast
7:15 AM 64.4 °F 59.4 °F 84% 30.06 in 10.0 mi North - - N/A   Overcast
7:35 AM 64.4 °F 59.4 °F 84% 30.06 in 10.0 mi North - - N/A   Overcast
7:55 AM 63.7 °F 59.0 °F 85% 30.07 in 10.0 mi WSW 5.8 mph - N/A Thunderstorm Overcast
8:15 AM 64.2 °F 59.2 °F 84% 30.08 in 10.0 mi West 4.6 mph - N/A Thunderstorm Mostly Cloudy
8:35 AM 64.6 °F 58.5 °F 80% 30.10 in 10.0 mi NNW 13.8 mph - N/A   Overcast
8:55 AM 63.7 °F 55.6 °F 75% 30.10 in 10.0 mi North 9.2 mph - N/A   Overcast
9:15 AM 63.5 °F 53.8 °F 71% 30.12 in 10.0 mi North 10.4 mph 18.4 mph N/A Thunderstorm Overcast
9:35 AM 63.7 °F 51.3 °F 64% 30.13 in 10.0 mi North 11.5 mph - N/A   Overcast
9:55 AM 62.8 °F 50.2 °F 63% 30.14 in 10.0 mi North 9.2 mph - N/A   Overcast
10:15 AM 64.4 °F 49.8 °F 59% 30.13 in 10.0 mi North 13.8 mph 17.3 mph N/A   Mostly Cloudy
10:35 AM 64.6 °F 49.5 °F 58% 30.14 in 10.0 mi North 12.7 mph 18.4 mph N/A   Clear
10:55 AM 66.2 °F 49.3 °F 54% 30.15 in 10.0 mi North 10.4 mph 16.1 mph N/A   Scattered Clouds
11:15 AM 65.7 °F 48.6 °F 54% 30.15 in 10.0 mi NNW 11.5 mph - N/A   Mostly Cloudy
11:35 AM 66.7 °F 48.9 °F 53% 30.15 in 10.0 mi North 15.0 mph 19.6 mph N/A   Mostly Cloudy
11:55 AM 67.8 °F 47.5 °F 48% 30.15 in 10.0 mi NNW 15.0 mph 21.9 mph N/A   Scattered Clouds
12:15 PM 68.5 °F 46.2 °F 45% 30.14 in 10.0 mi North 15.0 mph 20.7 mph N/A   Clear
12:35 PM 69.6 °F 44.6 °F 41% 30.14 in 10.0 mi North 16.1 mph 24.2 mph N/A   Clear
12:55 PM 69.4 °F 42.6 °F 38% 30.14 in 10.0 mi North 18.4 mph 24.2 mph N/A   Clear
1:15 PM 69.6 °F 41.7 °F 36% 30.13 in 10.0 mi NNE 9.2 mph 20.7 mph N/A   Clear
1:35 PM 70.0 °F 40.8 °F 35% 30.12 in 10.0 mi North 13.8 mph 21.9 mph N/A   Clear
1:55 PM 69.8 °F 39.6 °F 33% 30.12 in 10.0 mi North 17.3 mph 21.9 mph N/A   Clear
2:15 PM 69.8 °F 39.2 °F 33% 30.12 in 10.0 mi North 13.8 mph 19.6 mph N/A   Clear
2:35 PM 70.3 °F 39.2 °F 32% 30.13 in 10.0 mi North 9.2 mph 23.0 mph N/A   Clear
2:55 PM 69.8 °F 38.3 °F 32% 30.13 in 10.0 mi North 16.1 mph 24.2 mph N/A   Clear
3:15 PM 69.8 °F 37.4 °F 31% 30.14 in 10.0 mi NNE 9.2 mph - N/A   Clear
3:35 PM 69.4 °F 35.8 °F 29% 30.15 in 10.0 mi North 15.0 mph - N/A   Clear
3:55 PM 68.9 °F 34.7 °F 28% 30.15 in 10.0 mi North 15.0 mph - N/A   Clear
4:15 PM 68.0 °F 32.9 °F 27% 30.15 in 10.0 mi North 15.0 mph 19.6 mph N/A   Clear
4:35 PM 67.1 °F 33.3 °F 29% 30.17 in 10.0 mi North 11.5 mph - N/A   Clear
4:55 PM 66.2 °F 30.7 °F 27% 30.17 in 10.0 mi North 10.4 mph - N/A   Clear
5:15 PM 63.1 °F 29.3 °F 28% 30.18 in 10.0 mi North 11.5 mph 17.3 mph N/A   Clear
5:35 PM 61.7 °F 29.3 °F 29% 30.18 in 10.0 mi North 12.7 mph 18.4 mph N/A   Clear
5:55 PM 60.1 °F 29.3 °F 31% 30.18 in 10.0 mi North 9.2 mph 18.4 mph N/A   Clear
6:15 PM 59.2 °F 29.3 °F 32% 30.19 in 10.0 mi NNW 11.5 mph 18.4 mph N/A   Clear
6:35 PM 58.1 °F 28.8 °F 33% 30.20 in 10.0 mi North 11.5 mph 16.1 mph N/A   Clear
6:55 PM 57.2 °F 28.2 °F 33% 30.21 in 10.0 mi North 12.7 mph 16.1 mph N/A   Clear
7:15 PM 56.5 °F 28.2 °F 34% 30.21 in 10.0 mi North 10.4 mph 16.1 mph N/A   Clear
7:35 PM 55.6 °F 28.2 °F 35% 30.22 in 10.0 mi North 6.9 mph - N/A   Clear
7:55 PM 54.3 °F 28.4 °F 37% 30.22 in 10.0 mi NNE 3.5 mph - N/A   Clear
8:15 PM 53.6 °F 28.4 °F 38% 30.23 in 10.0 mi North 4.6 mph - N/A   Clear
8:35 PM 52.7 °F 28.4 °F 39% 30.24 in 10.0 mi North 5.8 mph - N/A   Clear
8:55 PM 52.3 °F 28.9 °F 41% 30.24 in 10.0 mi North 6.9 mph - N/A   Clear
9:15 PM 52.0 °F 29.3 °F 42% 30.24 in 10.0 mi North 5.8 mph - N/A   Clear
9:35 PM 50.5 °F 29.1 °F 44% 30.24 in 10.0 mi North 8.1 mph - N/A   Clear
9:55 PM 49.3 °F 30.0 °F 48% 30.25 in 10.0 mi NNW 6.9 mph - N/A   Clear
10:15 PM 50.2 °F 30.2 °F 46% 30.26 in 10.0 mi North 6.9 mph - N/A   Clear
10:35 PM 50.2 °F 30.4 °F 47% 30.26 in 10.0 mi North 4.6 mph - N/A   Clear
10:55 PM 50.0 °F 30.6 °F 47% 30.27 in 10.0 mi North 5.8 mph - N/A   Clear
11:15 PM 49.6 °F 30.7 °F 48% 30.27 in 10.0 mi North 6.9 mph - N/A   Clear
11:35 PM 48.9 °F 30.9 °F 50% 30.26 in 10.0 mi North 4.6 mph - N/A   Clear
11:55 PM 48.9 °F 30.9 °F 50% 30.26 in 10.0 mi NNE 4.6 mph - N/A   Clear